"SCET";"TARGET";"ELECTRON_DENSITY";"ERROR_FLAG";"ELECTRON_DENSITY_ERROR";"FREQ_FCE";"MEASURED_VALUE";"MEASURED_ITEM";"FREQ_PLASMA";"FREQ_UPPER_HYBRID";"FREQ_R_EQUALS_ZERO";"FREQ_L_EQUALS_ZERO";"ORBIT_NUMBER";"SATURN_RADIUS";"SATURN_IAU_LONGITUDE";"SATURN_SLS4_S_LONGITUDE";"SATURN_SLS4_N_LONGITUDE";"SATURN_SLS5_S_LONGITUDE";"SATURN_SLS5_N_LONGITUDE";"SATURN_LOCAL_TIME";"SATURN_KRONOGRAPHIC_LATITUDE";"SATURN_MAGNETIC_LATITUDE";"SATURN_L";"SATURN_L_OFFSET";"SATURN_SOLAR_EQUATORIAL_X";"SATURN_SOLAR_EQUATORIAL_Y";"SATURN_SOLAR_EQUATORIAL_Z";"SATURN_ALTITUDE";"ENCELADUS_ENCOUNTER_NUMBER";"ENCELADUS_RADIUS";"ENCELADUS_COROTATIONAL_X";"ENCELADUS_COROTATIONAL_Y";"ENCELADUS_COROTATIONAL_Z";"ENCELADUS_TRUE_ANOMALY";"ENCELADUS_PERIAPSIS_TIME";"JUPITER_RADIUS";"JUPITER_SYSTEMIII_LONGITUDE";"JUPITER_MAGNETIC_LATITUDE";"JUPITER_MAGNETIC_LOCAL_TIME";"JUPITER_L";"IO_PHASE";"EARTH_RADIUS";"EARTH_MAGNETIC_LATITUDE";"EARTH_LOCAL_TIME";"EARTH_L"
"[UTC]";"[0=Saturn, 1=Enceladus, 2=Jupiter, 3=Earth]";"[cm-3]";"[0=automated, 1=manual]";"[normalized density error]";"[Hz]";"[Hz]";"[0=upper hybrid frequency, 1=plasma frequency cutoff]";"[Hz]";"[Hz]";"[Hz]";"[Hz}";"[0, A, B, C, 3, 4, ... , 292, 293]";"[Rs where 1Rs=60268km]";"[degrees]";"[degrees]";"[degrees]";"[degrees]";"[degrees]";"[hours]";"[degrees]";"[degrees where offset=2293km north]";"[Rs where 1Rs=60268km]";"[Rs where 1Rs=60268km and offset=2293km north]";"[Rs where 1Rs=60268km]";"[Rs where 1Rs=60268km]";"[Rs where 1Rs=60268km]";"[km where ellipsoid a,b=60268km and c=54364km]";"[E0, E1, E2, ... , E21, E22]";"[Renc where 1Renc=252.1km]";"[Renc where 1Renc=252.1km]";"[Renc where 1Renc=252.1km]";"[Renc where 1Renc=252.1km]";"[degrees]";"[UTC]";"[Rj where 1Rj=71492km]";"[degrees]";"[degrees using JRM09 model]";"[hours using JRM09 model]";"[Rj where 1Rj=71492km]";"[degrees]";"[Re where 1Re=6378.1366km]";"[degrees]";"[hours]";"[Re where 1Re=6378.1366km]"
2005-02-16T14:03:11.871Z;0;9.2370e+00;0;     0.156;   895.328;  27307.184; 0;  27292.502;  27307.184;  27743.838;  26848.510;  3;   7.904;  61.484; 291.324;; 292.398; 198.419;  13.026;  -0.409;  -0.685;   7.904;   7.896;   7.620;   2.098;  -0.056;;;;;;;;;;;;;;;;;;
2005-02-16T14:03:43.870Z;0;1.1860e+01;0;     0.422;   895.328;  30941.076; 0;  30928.119;  30941.076;  31379.023;  30483.695;  3;   7.900;  61.753; 291.589;; 292.665; 198.691;  13.028;  -0.409;  -0.685;   7.900;   7.892;   7.615;   2.101;  -0.056;;;;;;;;;;;;;;;;;;
2005-02-16T14:04:47.870Z;0;1.1620e+01;0;     0.400;   890.680;  30628.592; 0;  30615.639;  30628.592;  31064.217;  30173.537;  3;   7.891;  62.291; 292.120;; 293.200; 199.236;  13.032;  -0.409;  -0.686;   7.891;   7.883;   7.604;   2.107;  -0.056;;;;;;;;;;;;;;;;;;
2005-02-16T14:05:19.870Z;0;1.1380e+01;0;     0.359;   902.272;  30304.418; 0;  30290.982;  30304.418;  30745.479;  29843.207;  3;   7.887;  62.560; 292.385;; 293.467; 199.508;  13.034;  -0.409;  -0.686;   7.887;   7.879;   7.599;   2.110;  -0.056;;;;;;;;;;;;;;;;;;
2005-02-16T14:06:55.869Z;0;1.0270e+01;0;     0.379;   886.732;  28788.980; 0;  28775.320;  28788.980;  29222.102;  28335.371;  3;   7.873;  63.367; 293.181;; 294.270; 200.328;  13.040;  -0.410;  -0.686;   7.874;   7.866;   7.583;   2.118;  -0.056;;;;;;;;;;;;;;;;;;
2005-02-16T14:09:03.868Z;0;1.0620e+01;0;     0.376;   904.400;  29282.205; 0;  29268.234;  29282.205;  29723.928;  28819.529;  3;   7.856;  64.443; 294.242;; 295.338; 201.425;  13.049;  -0.410;  -0.687;   7.856;   7.848;   7.561;   2.130;  -0.056;;;;;;;;;;;;;;;;;;
2005-02-16T14:09:19.868Z;0;1.0390e+01;0;     0.374;   908.852;  28964.102; 0;  28949.838;  28964.102;  29407.832;  28498.979;  3;   7.854;  64.577; 294.375;; 295.472; 201.562;  13.050;  -0.410;  -0.687;   7.854;   7.846;   7.559;   2.132;  -0.056;;;;;;;;;;;;;;;;;;
2005-02-16T14:09:35.868Z;0;1.0280e+01;0;     0.327;   908.852;  28808.986; 0;  28794.646;  28808.986;  29252.658;  28343.807;  3;   7.852;  64.711; 294.507;; 295.606; 201.700;  13.051;  -0.410;  -0.687;   7.852;   7.844;   7.556;   2.133;  -0.056;;;;;;;;;;;;;;;;;;
2005-02-16T14:09:51.868Z;0;1.2170e+01;0;     0.294;   888.804;  31335.471; 0;  31322.863;  31335.471;  31770.418;  30881.613;  3;   7.849;  64.846; 294.640;; 295.739; 201.837;  13.052;  -0.410;  -0.687;   7.850;   7.842;   7.553;   2.135;  -0.056;;;;;;;;;;;;;;;;;;
2005-02-16T14:10:07.868Z;0;1.1280e+01;0;     0.399;   888.804;  30168.439; 0;  30155.344;  30168.439;  30603.020;  29714.217;  3;   7.847;  64.980; 294.772;; 295.872; 201.974;  13.053;  -0.410;  -0.688;   7.848;   7.840;   7.551;   2.136;  -0.056;;;;;;;;;;;;;;;;;;
2005-02-16T14:11:27.867Z;0;1.0310e+01;0;     0.381;   931.504;  28850.123; 0;  28835.082;  28850.123;  29304.594;  28373.090;  3;   7.836;  65.652; 295.435;; 296.532; 202.655;  13.058;  -0.410;  -0.688;   7.837;   7.829;   7.537;   2.144;  -0.056;;;;;;;;;;;;;;;;;;
2005-02-16T14:11:43.867Z;0;1.1870e+01;0;     0.378;   931.504;  30958.422; 0;  30944.404;  30958.422;  31413.662;  30482.158;  3;   7.834;  65.786; 295.567;; 296.664; 202.791;  13.059;  -0.410;  -0.688;   7.834;   7.826;   7.535;   2.145;  -0.056;;;;;;;;;;;;;;;;;;
2005-02-16T14:11:59.867Z;0;1.1630e+01;0;     0.468;   911.568;  30643.225; 0;  30629.662;  30643.225;  31088.838;  30177.270;  3;   7.832;  65.920; 295.700;; 296.795; 202.927;  13.060;  -0.410;  -0.688;   7.832;   7.824;   7.532;   2.147;  -0.056;;;;;;;;;;;;;;;;;;
2005-02-16T14:12:15.867Z;0;1.2280e+01;0;     0.323;   911.568;  31475.990; 0;  31462.787;  31475.990;  31921.873;  31010.305;  3;   7.830;  66.055; 295.832;; 296.927; 203.063;  13.062;  -0.410;  -0.688;   7.830;   7.822;   7.529;   2.148;  -0.056;;;;;;;;;;;;;;;;;;
2005-02-16T14:13:19.867Z;0;1.1060e+01;0;     0.350;   911.120;  29882.336; 0;  29868.443;  29882.336;  30327.477;  29416.357;  3;   7.821;  66.592; 296.362;; 297.452; 203.608;  13.066;  -0.410;  -0.689;   7.821;   7.813;   7.518;   2.154;  -0.056;;;;;;;;;;;;;;;;;;
2005-02-16T14:13:35.866Z;0;1.1750e+01;0;     0.377;   911.120;  30789.652; 0;  30776.168;  30789.652;  31235.100;  30323.980;  3;   7.819;  66.726; 296.494;; 297.583; 203.744;  13.067;  -0.410;  -0.689;   7.819;   7.811;   7.516;   2.156;  -0.056;;;;;;;;;;;;;;;;;;
2005-02-16T14:13:51.866Z;0;1.1530e+01;0;     0.385;   889.644;  30506.955; 0;  30493.980;  30506.955;  30942.047;  30052.402;  3;   7.817;  66.860; 296.627;; 297.715; 203.880;  13.068;  -0.410;  -0.689;   7.817;   7.809;   7.513;   2.157;  -0.056;;;;;;;;;;;;;;;;;;
2005-02-16T14:14:23.866Z;0;1.0100e+01;0;     0.450;   916.860;  28554.361; 0;  28539.637;  28554.361;  29001.750;  28084.889;  3;   7.812;  67.129; 296.891;; 297.977; 204.152;  13.070;  -0.410;  -0.689;   7.813;   7.805;   7.508;   2.160;  -0.056;;;;;;;;;;;;;;;;;;
2005-02-16T14:15:11.866Z;0;9.5660e+00;0;     0.517;   896.672;  27788.928; 0;  27774.457;  27788.928;  28226.412;  27329.740;  3;   7.806;  67.531; 297.288;; 298.369; 204.560;  13.073;  -0.410;  -0.689;   7.806;   7.798;   7.499;   2.164;  -0.056;;;;;;;;;;;;;;;;;;
2005-02-16T14:18:23.865Z;0;9.9930e+00;0;     0.438;   948.080;  28402.545; 0;  28386.717;  28402.545;  28864.715;  27916.635;  3;   7.779;  69.141; 298.876;; 299.931; 206.192;  13.086;  -0.410;  -0.691;   7.780;   7.772;   7.467;   2.182;  -0.056;;;;;;;;;;;;;;;;;;
2005-02-16T14:19:11.864Z;0;1.1680e+01;0;     0.403;   926.408;  30707.670; 0;  30693.693;  30707.670;  31160.391;  30233.984;  3;   7.773;  69.543; 299.273;; 300.320; 206.600;  13.089;  -0.410;  -0.691;   7.773;   7.765;   7.459;   2.187;  -0.056;;;;;;;;;;;;;;;;;;
2005-02-16T14:21:19.863Z;0;8.9480e+00;0;     0.444;   941.416;  26878.312; 0;  26861.820;  26878.312;  27336.652;  26395.236;  3;   7.755;  70.615; 300.330;; 301.368; 207.687;  13.098;  -0.411;  -0.692;   7.756;   7.748;   7.437;   2.199;  -0.056;;;;;;;;;;;;;;;;;;
2005-02-16T14:21:35.863Z;0;1.0040e+01;0;     0.428;   941.416;  28465.785; 0;  28450.213;  28465.785;  28924.814;  27983.398;  3;   7.753;  70.749; 300.462;; 301.500; 207.823;  13.099;  -0.411;  -0.692;   7.754;   7.746;   7.434;   2.200;  -0.056;;;;;;;;;;;;;;;;;;
2005-02-16T14:21:51.863Z;0;1.0510e+01;0;     0.417;   919.016;  29120.764; 0;  29106.258;  29120.764;  29569.393;  28650.377;  3;   7.751;  70.883; 300.594;; 301.632; 207.958;  13.100;  -0.411;  -0.692;   7.751;   7.743;   7.432;   2.201;  -0.056;;;;;;;;;;;;;;;;;;
2005-02-16T14:22:23.863Z;0;1.0500e+01;0;     0.427;   963.676;  29113.254; 0;  29097.301;  29113.254;  29583.127;  28619.451;  3;   7.747;  71.151; 300.859;; 301.897; 208.230;  13.102;  -0.411;  -0.692;   7.747;   7.739;   7.426;   2.204;  -0.056;;;;;;;;;;;;;;;;;;
2005-02-16T14:22:39.863Z;0;1.2390e+01;0;     0.395;   963.676;  31628.018; 0;  31613.334;  31628.018;  32098.844;  31135.166;  3;   7.744;  71.285; 300.991;; 302.029; 208.366;  13.103;  -0.411;  -0.692;   7.745;   7.737;   7.423;   2.206;  -0.056;;;;;;;;;;;;;;;;;;
2005-02-16T14:23:11.863Z;0;1.2270e+01;0;     0.373;   941.836;  31463.740; 0;  31449.641;  31463.740;  31924.084;  30982.248;  3;   7.740;  71.553; 301.255;; 302.295; 208.637;  13.105;  -0.411;  -0.692;   7.740;   7.732;   7.418;   2.209;  -0.055;;;;;;;;;;;;;;;;;;
2005-02-16T14:23:27.863Z;0;1.2290e+01;0;     0.337;   965.692;  31495.471; 0;  31480.662;  31495.471;  31967.211;  31001.520;  3;   7.738;  71.687; 301.387;; 302.427; 208.773;  13.106;  -0.411;  -0.692;   7.738;   7.730;   7.415;   2.210;  -0.055;;;;;;;;;;;;;;;;;;
2005-02-16T14:23:43.862Z;0;1.0830e+01;0;     0.414;   965.692;  29564.270; 0;  29548.494;  29564.270;  30035.285;  29069.592;  3;   7.736;  71.821; 301.519;; 302.560; 208.909;  13.108;  -0.411;  -0.692;   7.736;   7.728;   7.413;   2.212;  -0.055;;;;;;;;;;;;;;;;;;
2005-02-16T14:24:47.862Z;0;1.2360e+01;0;     0.338;   931.588;  31583.678; 0;  31569.936;  31583.678;  32039.166;  31107.578;  3;   7.727;  72.356; 302.047;; 303.091; 209.452;  13.112;  -0.411;  -0.693;   7.727;   7.719;   7.402;   2.218;  -0.055;;;;;;;;;;;;;;;;;;
2005-02-16T14:26:23.861Z;0;1.0210e+01;0;     0.409;   976.612;  28704.566; 0;  28687.947;  28704.566;  29180.410;  28203.797;  3;   7.714;  73.159; 302.839;; 303.890; 210.266;  13.118;  -0.411;  -0.693;   7.714;   7.706;   7.385;   2.227;  -0.055;;;;;;;;;;;;;;;;;;
2005-02-16T14:26:55.861Z;0;1.0070e+01;0;     0.417;   955.556;  28512.965; 0;  28496.949;  28512.965;  28978.732;  28023.176;  3;   7.709;  73.427; 303.103;; 304.157; 210.537;  13.121;  -0.411;  -0.694;   7.710;   7.702;   7.380;   2.229;  -0.055;;;;;;;;;;;;;;;;;;
2005-02-16T14:27:11.861Z;0;1.1810e+01;0;     0.403;   955.556;  30877.201; 0;  30862.412;  30877.201;  31343.889;  30388.332;  3;   7.707;  73.561; 303.235;; 304.291; 210.673;  13.122;  -0.411;  -0.694;   7.708;   7.700;   7.377;   2.231;  -0.055;;;;;;;;;;;;;;;;;;
2005-02-16T14:27:27.861Z;0;1.2070e+01;0;     0.358;   979.524;  31217.076; 0;  31201.705;  31217.076;  31695.311;  30715.787;  3;   7.705;  73.694; 303.367;; 304.424; 210.808;  13.123;  -0.411;  -0.694;   7.705;   7.697;   7.374;   2.232;  -0.055;;;;;;;;;;;;;;;;;;
2005-02-16T14:27:43.861Z;0;1.2300e+01;0;     0.344;   979.524;  31505.314; 0;  31490.084;  31505.314;  31983.654;  31004.131;  3;   7.703;  73.828; 303.499;; 304.558; 210.944;  13.124;  -0.411;  -0.694;   7.703;   7.695;   7.372;   2.234;  -0.055;;;;;;;;;;;;;;;;;;
2005-02-16T14:27:59.861Z;0;1.2150e+01;0;     0.350;   957.908;  31317.619; 0;  31302.967;  31317.619;  31785.584;  30827.676;  3;   7.701;  73.962; 303.631;; 304.692; 211.080;  13.125;  -0.411;  -0.694;   7.701;   7.693;   7.369;   2.235;  -0.055;;;;;;;;;;;;;;;;;;
2005-02-16T14:28:15.861Z;0;1.2440e+01;0;     0.353;   957.908;  31681.910; 0;  31667.426;  31681.910;  32150.002;  31192.094;  3;   7.698;  74.096; 303.763;; 304.825; 211.215;  13.126;  -0.411;  -0.694;   7.699;   7.691;   7.366;   2.237;  -0.055;;;;;;;;;;;;;;;;;;
2005-02-16T14:28:31.861Z;0;1.2110e+01;0;     0.370;   972.804;  31259.469; 0;  31244.328;  31259.469;  31734.516;  30761.713;  3;   7.696;  74.229; 303.895;; 304.959; 211.351;  13.127;  -0.411;  -0.694;   7.697;   7.689;   7.363;   2.238;  -0.055;;;;;;;;;;;;;;;;;;
2005-02-16T14:29:03.860Z;0;1.0530e+01;0;     0.385;   950.180;  29158.828; 0;  29143.342;  29158.828;  29622.305;  28672.125;  3;   7.692;  74.497; 304.158;; 305.227; 211.622;  13.129;  -0.411;  -0.694;   7.692;   7.684;   7.358;   2.241;  -0.055;;;;;;;;;;;;;;;;;;
2005-02-16T14:29:19.860Z;0;1.2490e+01;0;     0.365;   978.264;  31747.920; 0;  31732.844;  31747.920;  32225.746;  31247.482;  3;   7.690;  74.631; 304.290;; 305.361; 211.758;  13.130;  -0.411;  -0.695;   7.690;   7.682;   7.355;   2.243;  -0.055;;;;;;;;;;;;;;;;;;
2005-02-16T14:29:35.860Z;0;1.2650e+01;0;     0.349;   978.264;  31953.668; 0;  31938.689;  31953.668;  32431.566;  31453.303;  3;   7.687;  74.764; 304.422;; 305.495; 211.893;  13.131;  -0.411;  -0.695;   7.688;   7.680;   7.352;   2.244;  -0.055;;;;;;;;;;;;;;;;;;
2005-02-16T14:29:51.860Z;0;1.3850e+01;0;     0.390;   956.732;  33430.148; 0;  33416.457;  33430.148;  33898.246;  32941.512;  3;   7.685;  74.898; 304.554;; 305.629; 212.029;  13.133;  -0.411;  -0.695;   7.686;   7.678;   7.350;   2.246;  -0.055;;;;;;;;;;;;;;;;;;
2005-02-16T14:30:07.860Z;0;1.2270e+01;0;     0.314;   956.732;  31471.621; 0;  31457.076;  31471.621;  31939.078;  30982.346;  3;   7.683;  75.032; 304.686;; 305.762; 212.164;  13.134;  -0.411;  -0.695;   7.683;   7.675;   7.347;   2.247;  -0.055;;;;;;;;;;;;;;;;;;
2005-02-16T14:30:23.860Z;0;1.2120e+01;0;     0.361;   993.356;  31277.225; 0;  31261.445;  31277.225;  31762.070;  30768.713;  3;   7.681;  75.165; 304.818;; 305.894; 212.298;  13.135;  -0.411;  -0.695;   7.681;   7.673;   7.344;   2.249;  -0.055;;;;;;;;;;;;;;;;;;
2005-02-16T14:30:39.860Z;0;1.4210e+01;0;     0.382;   993.356;  33868.539; 0;  33853.969;  33868.539;  34354.289;  33360.934;  3;   7.679;  75.299; 304.949;; 306.025; 212.432;  13.136;  -0.411;  -0.695;   7.679;   7.671;   7.341;   2.250;  -0.055;;;;;;;;;;;;;;;;;;
2005-02-16T14:30:55.860Z;0;1.2520e+01;0;     0.333;   971.208;  31786.658; 0;  31771.818;  31786.658;  32261.133;  31289.924;  3;   7.676;  75.433; 305.081;; 306.156; 212.566;  13.137;  -0.411;  -0.695;   7.677;   7.669;   7.339;   2.252;  -0.055;;;;;;;;;;;;;;;;;;
2005-02-16T14:31:11.860Z;0;1.2490e+01;0;     0.340;   971.208;  31751.256; 0;  31736.398;  31751.256;  32225.717;  31254.510;  3;   7.674;  75.566; 305.213;; 306.288; 212.699;  13.138;  -0.411;  -0.695;   7.675;   7.667;   7.336;   2.253;  -0.055;;;;;;;;;;;;;;;;;;
2005-02-16T14:31:27.859Z;0;1.2140e+01;0;     0.334;   997.612;  31303.707; 0;  31287.807;  31303.707;  31790.588;  30792.977;  3;   7.672;  75.700; 305.345;; 306.419; 212.833;  13.139;  -0.411;  -0.695;   7.672;   7.665;   7.333;   2.254;  -0.055;;;;;;;;;;;;;;;;;;
2005-02-16T14:31:43.859Z;0;1.2440e+01;0;     0.332;   997.612;  31689.238; 0;  31673.531;  31689.238;  32176.266;  31178.652;  3;   7.670;  75.833; 305.477;; 306.550; 212.967;  13.140;  -0.411;  -0.695;   7.670;   7.662;   7.330;   2.256;  -0.055;;;;;;;;;;;;;;;;;;
2005-02-16T14:31:59.859Z;0;1.2090e+01;0;     0.314;   976.220;  31233.664; 0;  31218.404;  31233.664;  31710.330;  30734.109;  3;   7.668;  75.967; 305.608;; 306.681; 213.101;  13.141;  -0.411;  -0.695;   7.668;   7.660;   7.328;   2.257;  -0.055;;;;;;;;;;;;;;;;;;
2005-02-16T14:32:15.859Z;0;1.2250e+01;0;     0.338;   976.220;  31441.938; 0;  31426.779;  31441.938;  31918.680;  30942.459;  3;   7.665;  76.101; 305.740;; 306.812; 213.234;  13.142;  -0.411;  -0.696;   7.666;   7.658;   7.325;   2.259;  -0.055;;;;;;;;;;;;;;;;;;
2005-02-16T14:32:31.859Z;0;1.1430e+01;0;     0.248;   998.228;  30377.674; 0;  30361.268;  30377.674;  30864.484;  29866.256;  3;   7.663;  76.234; 305.872;; 306.942; 213.368;  13.144;  -0.411;  -0.696;   7.664;   7.656;   7.322;   2.260;  -0.055;;;;;;;;;;;;;;;;;;
2005-02-16T14:32:47.859Z;0;1.2650e+01;0;     0.365;   976.668;  31959.926; 0;  31945.000;  31959.926;  32437.066;  31460.398;  3;   7.661;  76.368; 306.004;; 307.073; 213.501;  13.145;  -0.411;  -0.696;   7.661;   7.654;   7.319;   2.262;  -0.055;;;;;;;;;;;;;;;;;;
2005-02-16T14:33:03.859Z;0;1.2580e+01;0;     0.391;   976.668;  31868.604; 0;  31853.635;  31868.604;  32345.711;  31369.043;  3;   7.659;  76.501; 306.135;; 307.204; 213.634;  13.146;  -0.411;  -0.696;   7.659;   7.651;   7.317;   2.263;  -0.055;;;;;;;;;;;;;;;;;;
2005-02-16T14:33:19.859Z;0;1.2670e+01;0;     0.369;   989.184;  31979.496; 0;  31964.193;  31979.496;  32462.611;  31473.428;  3;   7.657;  76.635; 306.267;; 307.334; 213.768;  13.147;  -0.411;  -0.696;   7.657;   7.649;   7.314;   2.265;  -0.055;;;;;;;;;;;;;;;;;;
2005-02-16T14:33:35.859Z;0;1.2460e+01;0;     0.359;   989.184;  31710.051; 0;  31694.619;  31710.051;  32193.068;  31203.885;  3;   7.654;  76.769; 306.399;; 307.465; 213.901;  13.148;  -0.411;  -0.696;   7.655;   7.647;   7.311;   2.266;  -0.055;;;;;;;;;;;;;;;;;;
2005-02-16T14:33:51.859Z;0;1.2600e+01;0;     0.333;   968.100;  31894.830; 0;  31880.135;  31894.830;  32367.859;  31399.760;  3;   7.652;  76.902; 306.531;; 307.595; 214.034;  13.149;  -0.411;  -0.696;   7.653;   7.645;   7.308;   2.268;  -0.055;;;;;;;;;;;;;;;;;;
2005-02-16T14:34:07.858Z;0;1.2520e+01;0;     0.352;   968.100;  31783.832; 0;  31769.086;  31783.832;  32256.822;  31288.723;  3;   7.650;  77.036; 306.662;; 307.725; 214.167;  13.150;  -0.411;  -0.696;   7.650;   7.643;   7.306;   2.269;  -0.055;;;;;;;;;;;;;;;;;;
2005-02-16T14:34:23.858Z;0;1.2270e+01;0;     0.350;  1001.728;  31477.061; 0;  31461.117;  31477.061;  31965.967;  30964.240;  3;   7.648;  77.169; 306.794;; 307.856; 214.300;  13.151;  -0.411;  -0.696;   7.648;   7.640;   7.303;   2.271;  -0.055;;;;;;;;;;;;;;;;;;
2005-02-16T14:34:39.858Z;0;1.2330e+01;0;     0.362;  1001.728;  31554.535; 0;  31538.631;  31554.535;  32043.471;  31041.744;  3;   7.646;  77.303; 306.926;; 307.986; 214.432;  13.152;  -0.411;  -0.696;   7.646;   7.638;   7.300;   2.272;  -0.055;;;;;;;;;;;;;;;;;;
2005-02-16T14:34:55.858Z;0;1.2610e+01;0;     0.378;   979.664;  31902.348; 0;  31887.303;  31902.348;  32380.896;  31401.232;  3;   7.643;  77.436; 307.057;; 308.116; 214.565;  13.154;  -0.411;  -0.697;   7.644;   7.636;   7.297;   2.274;  -0.055;;;;;;;;;;;;;;;;;;
2005-02-16T14:35:11.858Z;0;1.2190e+01;0;     0.351;   979.664;  31373.152; 0;  31357.854;  31373.152;  31851.510;  30871.846;  3;   7.641;  77.570; 307.189;; 308.246; 214.698;  13.155;  -0.411;  -0.697;   7.642;   7.634;   7.295;   2.275;  -0.055;;;;;;;;;;;;;;;;;;
2005-02-16T14:35:27.858Z;0;1.2700e+01;0;     0.373;  1003.128;  32019.469; 0;  32003.752;  32019.469;  32509.246;  31506.117;  3;   7.639;  77.703; 307.321;; 308.376; 214.830;  13.156;  -0.411;  -0.697;   7.639;   7.632;   7.292;   2.277;  -0.055;;;;;;;;;;;;;;;;;;
2005-02-16T14:35:43.858Z;0;1.3010e+01;0;     0.375;  1003.128;  32411.400; 0;  32395.873;  32411.400;  32901.320;  31898.191;  3;   7.637;  77.837; 307.452;; 308.506; 214.963;  13.157;  -0.412;  -0.697;   7.637;   7.629;   7.289;   2.278;  -0.055;;;;;;;;;;;;;;;;;;
2005-02-16T14:35:59.858Z;0;1.3060e+01;0;     0.360;   981.708;  32468.736; 0;  32453.893;  32468.736;  32948.457;  31966.750;  3;   7.635;  77.970; 307.584;; 308.635; 215.095;  13.158;  -0.412;  -0.697;   7.635;   7.627;   7.286;   2.279;  -0.055;;;;;;;;;;;;;;;;;;
2005-02-16T14:36:15.858Z;0;1.2440e+01;0;     0.361;   981.708;  31685.215; 0;  31670.004;  31685.215;  32164.660;  31182.953;  3;   7.633;  78.104; 307.715;; 308.765; 215.228;  13.159;  -0.412;  -0.697;   7.633;   7.625;   7.284;   2.281;  -0.055;;;;;;;;;;;;;;;;;;
2005-02-16T14:36:31.857Z;0;1.4140e+01;0;     0.435;  1008.028;  33779.980; 0;  33764.938;  33779.980;  34272.711;  33264.684;  3;   7.630;  78.237; 307.847;; 308.895; 215.360;  13.160;  -0.412;  -0.697;   7.631;   7.623;   7.281;   2.282;  -0.055;;;;;;;;;;;;;;;;;;
2005-02-16T14:37:03.857Z;0;1.1860e+01;0;     0.394;   986.916;  30937.986; 0;  30922.240;  30937.986;  31419.637;  30432.721;  3;   7.626;  78.504; 308.110;; 309.154; 215.624;  13.162;  -0.412;  -0.697;   7.626;   7.618;   7.275;   2.285;  -0.055;;;;;;;;;;;;;;;;;;
2005-02-16T14:37:19.857Z;0;1.3010e+01;0;     0.286;  1009.400;  32400.371; 0;  32384.645;  32400.371;  32893.277;  31883.877;  3;   7.624;  78.637; 308.242;; 309.283; 215.756;  13.164;  -0.412;  -0.697;   7.624;   7.616;   7.273;   2.287;  -0.055;;;;;;;;;;;;;;;;;;
2005-02-16T14:37:35.857Z;0;1.2580e+01;0;     0.385;  1009.400;  31869.074; 0;  31853.084;  31869.074;  32361.783;  31352.383;  3;   7.622;  78.771; 308.373;; 309.412; 215.888;  13.165;  -0.412;  -0.698;   7.622;   7.614;   7.270;   2.288;  -0.055;;;;;;;;;;;;;;;;;;
2005-02-16T14:37:51.857Z;0;1.4410e+01;0;     0.376;   987.784;  34105.430; 0;  34091.121;  34105.430;  34588.590;  33600.809;  3;   7.619;  78.904; 308.505;; 309.541; 216.020;  13.166;  -0.412;  -0.698;   7.620;   7.612;   7.267;   2.290;  -0.055;;;;;;;;;;;;;;;;;;
2005-02-16T14:38:07.857Z;0;1.2480e+01;0;     0.369;   987.784;  31732.924; 0;  31717.547;  31732.924;  32215.283;  31227.500;  3;   7.617;  79.038; 308.637;; 309.671; 216.152;  13.167;  -0.412;  -0.698;   7.618;   7.610;   7.264;   2.291;  -0.055;;;;;;;;;;;;;;;;;;
2005-02-16T14:38:23.857Z;0;1.2710e+01;0;     0.377;  1007.888;  32035.977; 0;  32020.117;  32035.977;  32528.027;  31520.139;  3;   7.615;  79.171; 308.768;; 309.800; 216.284;  13.168;  -0.412;  -0.698;   7.615;   7.607;   7.262;   2.293;  -0.055;;;;;;;;;;;;;;;;;;
2005-02-16T14:38:39.857Z;0;1.2990e+01;0;     0.359;  1007.888;  32377.012; 0;  32361.320;  32377.012;  32869.188;  31861.301;  3;   7.613;  79.304; 308.900;; 309.929; 216.415;  13.169;  -0.412;  -0.698;   7.613;   7.605;   7.259;   2.294;  -0.055;;;;;;;;;;;;;;;;;;
2005-02-16T14:39:11.856Z;0;1.3280e+01;0;     0.562;   986.776;  32735.617; 0;  32720.742;  32735.617;  33217.848;  32231.072;  3;   7.608;  79.571; 309.163;; 310.186; 216.678;  13.171;  -0.412;  -0.698;   7.609;   7.601;   7.253;   2.297;  -0.055;;;;;;;;;;;;;;;;;;
2005-02-16T14:39:27.856Z;0;1.5030e+01;0;     0.400;  1028.468;  34826.668; 0;  34811.480;  34826.668;  35329.512;  34301.043;  3;   7.606;  79.704; 309.294;; 310.315; 216.810;  13.172;  -0.412;  -0.698;   7.607;   7.599;   7.250;   2.298;  -0.055;;;;;;;;;;;;;;;;;;
2005-02-16T14:39:43.856Z;0;1.3050e+01;0;     0.259;  1028.468;  32454.609; 0;  32438.309;  32454.609;  32956.621;  31928.150;  3;   7.604;  79.838; 309.426;; 310.444; 216.941;  13.174;  -0.412;  -0.698;   7.604;   7.597;   7.248;   2.300;  -0.055;;;;;;;;;;;;;;;;;;
2005-02-16T14:39:59.856Z;0;1.1830e+01;0;     0.218;  1006.852;  30904.434; 0;  30888.027;  30904.434;  31395.557;  30388.705;  3;   7.602;  79.971; 309.557;; 310.572; 217.072;  13.175;  -0.412;  -0.698;   7.602;   7.594;   7.245;   2.301;  -0.055;;;;;;;;;;;;;;;;;;
2005-02-16T14:40:15.856Z;0;1.3200e+01;0;     0.187;  1006.852;  32636.139; 0;  32620.604;  32636.139;  33127.914;  32121.062;  3;   7.600;  80.104; 309.689;; 310.703; 217.206;  13.176;  -0.412;  -0.699;   7.600;   7.592;   7.242;   2.303;  -0.055;;;;;;;;;;;;;;;;;;
2005-02-16T14:40:31.856Z;0;1.4050e+01;0;     0.190;  1031.212;  33675.996; 0;  33660.203;  33675.996;  34179.758;  33148.547;  3;   7.597;  80.238; 309.820;; 310.835; 217.340;  13.177;  -0.412;  -0.699;   7.598;   7.590;   7.239;   2.304;  -0.055;;;;;;;;;;;;;;;;;;
2005-02-16T14:40:47.856Z;0;1.4350e+01;0;     0.263;  1010.184;  34033.297; 0;  34018.301;  34033.297;  34527.145;  33516.957;  3;   7.595;  80.371; 309.952;; 310.966; 217.474;  13.178;  -0.412;  -0.699;   7.596;   7.588;   7.237;   2.306;  -0.055;;;;;;;;;;;;;;;;;;
2005-02-16T14:41:03.856Z;0;1.2320e+01;0;     0.197;  1010.184;  31531.156; 0;  31514.971;  31531.156;  32024.109;  31013.926;  3;   7.593;  80.504; 310.083;; 311.097; 217.608;  13.179;  -0.412;  -0.699;   7.593;   7.586;   7.234;   2.307;  -0.055;;;;;;;;;;;;;;;;;;
2005-02-16T14:41:19.856Z;0;1.2070e+01;0;     0.111;  1030.960;  31219.727; 0;  31202.699;  31219.727;  31722.438;  30691.477;  3;   7.591;  80.638; 310.214;; 311.229; 217.742;  13.180;  -0.412;  -0.699;   7.591;   7.583;   7.231;   2.309;  -0.055;;;;;;;;;;;;;;;;;;